When you browse on this site, cookies collect data to enhance your experience and personalize the content and advertising you see.
Visit our Privacy Policy to learn more. By continuing to use the site, you agree to this use of cookies and data.
  • In Hungary
  • List of Countries
  • For 7 days
  • Water Temperature
  • Weather Map
  • News
  • Weather Widgets
  • user-avatar
    Login

    Hourly Weather Freising

    Today, 13 November, Wednesday

    Time Temperature Precipitation Wind Pressure Humidity
    00:00 +2°C° 0.4 mm 2 mps 712 mmHg 93%
    01:00 +3°C° 0.4 mm 1 mps 712 mmHg 94%
    02:00 +3°C° 0 mm 1 mps 712 mmHg 95%
    03:00 +2°C° 0 mm 1 mps 711 mmHg 96%
    04:00 +2°C° 0 mm 1 mps 711 mmHg 97%
    05:00 +2°C° 0.2 mm 1 mps 711 mmHg 97%
    06:00 +3°C° 0.2 mm 1 mps 711 mmHg 97%
    07:00 +3°C° 0.2 mm 1 mps 711 mmHg 97%
    08:00 +3°C° 0.1 mm 1 mps 711 mmHg 96%
    09:00 +3°C° 0.1 mm 1 mps 711 mmHg 96%
    10:00 +3°C° 0.1 mm 1 mps 711 mmHg 96%
    11:00 +4°C° 0.2 mm 1 mps 711 mmHg 95%
    12:00 +3°C° 0.2 mm 2 mps 711 mmHg 95%
    13:00 +3°C° 0.2 mm 2 mps 711 mmHg 95%
    14:00 +3°C° 0.3 mm 2 mps 712 mmHg 94%
    15:00 +3°C° 0.3 mm 2 mps 712 mmHg 93%
    16:00 +3°C° 0.3 mm 2 mps 712 mmHg 92%
    17:00 +3°C° 0.1 mm 2 mps 712 mmHg 92%
    18:00 +3°C° 0.1 mm 2 mps 712 mmHg 91%
    19:00 +2°C° 0.1 mm 2 mps 713 mmHg 91%
    20:00 +1°C° 0 mm 2 mps 713 mmHg 90%
    21:00 +1°C° 0 mm 2 mps 713 mmHg 90%
    22:00 -1°C° 0 mm 2 mps 713 mmHg 89%
    23:00 -1°C° 0 mm 2 mps 713 mmHg 89%

    Tomorrow, 14 November, Thursday

    Time Temperature Precipitation Wind Pressure Humidity
    00:00 -2°C° 0 mm 2 mps 713 mmHg 89%
    01:00 0°C° 0 mm 1 mps 713 mmHg 89%
    02:00 -2°C° 0 mm 2 mps 712 mmHg 89%
    03:00 -2°C° 0 mm 2 mps 712 mmHg 90%
    04:00 -2°C° 0 mm 2 mps 712 mmHg 90%
    05:00 -2°C° 0 mm 2 mps 712 mmHg 90%
    06:00 -4°C° 0 mm 3 mps 712 mmHg 91%
    07:00 -4°C° 0 mm 3 mps 712 mmHg 91%
    08:00 -1°C° 0 mm 3 mps 712 mmHg 87%
    09:00 -1°C° 0 mm 4 mps 711 mmHg 83%
    10:00 0°C° 0 mm 4 mps 711 mmHg 79%
    11:00 +1°C° 0 mm 4 mps 711 mmHg 76%
    12:00 +3°C° 0 mm 3 mps 711 mmHg 73%
    13:00 +4°C° 0 mm 3 mps 711 mmHg 70%
    14:00 +4°C° 0 mm 3 mps 711 mmHg 75%
    15:00 +3°C° 0 mm 3 mps 711 mmHg 79%
    16:00 +3°C° 0 mm 3 mps 710 mmHg 83%
    17:00 +1°C° 0 mm 4 mps 710 mmHg 87%
    18:00 0°C° 0 mm 4 mps 710 mmHg 91%
    19:00 0°C° 0 mm 5 mps 710 mmHg 94%
    20:00 -1°C° 0 mm 4 mps 710 mmHg 94%
    21:00 -1°C° 0 mm 4 mps 709 mmHg 94%
    22:00 -1°C° 0 mm 4 mps 709 mmHg 94%
    23:00 0°C° 0 mm 3 mps 709 mmHg 94%

    Day after tomorrow, 15 November, Friday

    Time Temperature Precipitation Wind Pressure Humidity
    00:00 -1°C° 0 mm 3 mps 708 mmHg 93%
    01:00 -1°C° 0 mm 2 mps 708 mmHg 92%
    02:00 -1°C° 0 mm 3 mps 707 mmHg 92%
    03:00 -1°C° 0 mm 3 mps 707 mmHg 92%
    04:00 -1°C° 0 mm 3 mps 706 mmHg 92%
    05:00 -1°C° 0 mm 3 mps 706 mmHg 92%
    06:00 +1°C° 0 mm 2 mps 706 mmHg 92%
    07:00 +2°C° 0 mm 1 mps 706 mmHg 92%
    08:00 +1°C° 0 mm 2 mps 707 mmHg 88%
    09:00 +1°C° 0 mm 3 mps 708 mmHg 84%
    10:00 +1°C° 0 mm 4 mps 708 mmHg 79%
    11:00 +1°C° 0 mm 4 mps 709 mmHg 78%
    12:00 +3°C° 0 mm 3 mps 710 mmHg 76%
    13:00 +4°C° 0 mm 3 mps 710 mmHg 75%
    14:00 +5°C° 0 mm 2 mps 710 mmHg 77%
    15:00 +4°C° 0 mm 2 mps 710 mmHg 79%
    16:00 +5°C° 0 mm 1 mps 710 mmHg 82%
    17:00 +3°C° 0.2 mm 2 mps 711 mmHg 85%
    18:00 +2°C° 0.2 mm 3 mps 711 mmHg 88%
    19:00 +1°C° 0.2 mm 3 mps 711 mmHg 90%
    20:00 +1°C° 0.4 mm 3 mps 711 mmHg 92%
    21:00 +1°C° 0.4 mm 3 mps 712 mmHg 94%
    22:00 +2°C° 0.4 mm 2 mps 712 mmHg 96%
    23:00 +2°C° 0.6 mm 2 mps 713 mmHg 97%

    16 November, Saturday

    Time Temperature Precipitation Wind Pressure Humidity
    00:00 +3°C° 0.6 mm 1 mps 713 mmHg 97%
    01:00 +3°C° 0.6 mm 1 mps 713 mmHg 97%
    02:00 +3°C° 0 mm 1 mps 714 mmHg 97%
    03:00 +3°C° 0 mm 1 mps 714 mmHg 97%
    04:00 +2°C° 0 mm 0 mps 715 mmHg 96%
    05:00 +2°C° 0 mm 0 mps 715 mmHg 96%
    06:00 +3°C° 0 mm 1 mps 716 mmHg 95%
    07:00 +3°C° 0 mm 1 mps 716 mmHg 95%
    08:00 +3°C° 0 mm 1 mps 717 mmHg 92%
    09:00 +3°C° 0 mm 2 mps 717 mmHg 90%
    10:00 +4°C° 0 mm 2 mps 718 mmHg 88%
    11:00 +4°C° 0 mm 3 mps 718 mmHg 85%
    12:00 +4°C° 0 mm 3 mps 718 mmHg 83%
    13:00 +5°C° 0 mm 3 mps 718 mmHg 81%
    14:00 +5°C° 0 mm 3 mps 718 mmHg 83%
    15:00 +5°C° 0 mm 2 mps 717 mmHg 86%
    16:00 +5°C° 0 mm 2 mps 717 mmHg 89%
    17:00 +4°C° 0.1 mm 2 mps 718 mmHg 90%
    18:00 +4°C° 0.1 mm 2 mps 718 mmHg 92%
    19:00 +4°C° 0.1 mm 2 mps 718 mmHg 94%
    20:00 +4°C° 0 mm 2 mps 717 mmHg 94%
    21:00 +3°C° 0 mm 2 mps 717 mmHg 94%
    22:00 +3°C° 0 mm 2 mps 717 mmHg 94%
    23:00 +3°C° 0 mm 2 mps 716 mmHg 95%

    17 November, Sunday

    Time Temperature Precipitation Wind Pressure Humidity
    00:00 +4°C° 0 mm 1 mps 716 mmHg 95%
    01:00 +4°C° 0 mm 1 mps 715 mmHg 96%
    02:00 +4°C° 0 mm 1 mps 715 mmHg 95%
    03:00 +4°C° 0 mm 1 mps 715 mmHg 94%
    04:00 +5°C° 0 mm 1 mps 714 mmHg 94%
    05:00 +4°C° 0 mm 1 mps 714 mmHg 94%
    06:00 +4°C° 0 mm 1 mps 714 mmHg 93%
    07:00 +3°C° 0 mm 2 mps 714 mmHg 93%
    08:00 +4°C° 0 mm 2 mps 714 mmHg 91%
    09:00 +4°C° 0 mm 2 mps 714 mmHg 89%
    10:00 +4°C° 0 mm 2 mps 714 mmHg 87%
    11:00 +5°C° 0 mm 2 mps 714 mmHg 85%
    12:00 +6°C° 0 mm 1 mps 713 mmHg 83%
    13:00 +7°C° 0 mm 1 mps 713 mmHg 82%
    14:00 +7°C° 0 mm 1 mps 713 mmHg 83%
    15:00 +6°C° 0 mm 1 mps 712 mmHg 85%
    16:00 +6°C° 0 mm 1 mps 712 mmHg 87%
    17:00 +6°C° 0 mm 1 mps 711 mmHg 89%
    18:00 +6°C° 0 mm 1 mps 711 mmHg 90%
    19:00 +5°C° 0 mm 0 mps 711 mmHg 92%
    20:00 +6°C° 0 mm 1 mps 711 mmHg 93%
    21:00 +5°C° 0 mm 1 mps 710 mmHg 94%
    22:00 +5°C° 0 mm 1 mps 710 mmHg 94%
    23:00 +5°C° 0 mm 1 mps 710 mmHg 94%

    18 November, Monday

    Time Temperature Precipitation Wind Pressure Humidity
    00:00 +5°C° 0 mm 1 mps 710 mmHg 94%
    01:00 +4°C° 0 mm 2 mps 710 mmHg 94%
    02:00 +4°C° 0 mm 2 mps 710 mmHg 94%
    03:00 +4°C° 0 mm 2 mps 710 mmHg 94%
    04:00 +4°C° 0 mm 2 mps 710 mmHg 95%
    05:00 +4°C° 0 mm 2 mps 711 mmHg 94%
    06:00 +4°C° 0 mm 2 mps 712 mmHg 93%
    07:00 +4°C° 0 mm 2 mps 712 mmHg 93%
    08:00 +4°C° 0 mm 2 mps 713 mmHg 91%
    09:00 +5°C° 0 mm 2 mps 713 mmHg 89%
    10:00 +5°C° 0 mm 2 mps 714 mmHg 87%
    11:00 +6°C° 0 mm 2 mps 714 mmHg 85%
    12:00 +6°C° 0 mm 2 mps 714 mmHg 83%
    13:00 +7°C° 0 mm 2 mps 714 mmHg 80%
    14:00 +8°C° 0 mm 1 mps 715 mmHg 81%
    15:00 +7°C° 0 mm 1 mps 715 mmHg 83%
    16:00 +6°C° 0 mm 0 mps 716 mmHg 84%
    17:00 +6°C° 0 mm 0 mps 716 mmHg 84%
    18:00 +7°C° 0 mm 1 mps 717 mmHg 85%
    19:00 +7°C° 0 mm 1 mps 717 mmHg 85%
    20:00 +6°C° 0 mm 1 mps 717 mmHg 86%
    21:00 +6°C° 0 mm 1 mps 717 mmHg 87%
    22:00 +6°C° 0 mm 1 mps 718 mmHg 88%
    23:00 +6°C° 0 mm 1 mps 718 mmHg 89%
    Show more